Theta_e
303 302 301 300 299 300 300 301 301 300 301 297 294 296 291 289 288 298 301 302 300 293 285 288 286 284 286 291 290 291 289 288 292 290 293 288 291 289 288 286 285 286 284 285 285 286 285 286 284 286 287 287 290 292 292 293 291 292 289 290 291 295 286 285 284 287 289 290 293 295 294 292 290 291 292 291 289 290 290 289 292 287 287 286 286 283 290
303 302 301 300 299 300 300 300 301 301 301 298 296 292 289 289 289 293 300 301 299 289 282 281 283 285 288 288 287 291 289 290 289 289 291 290 287 286 286 285 288 286 289 287 286 289 282 287 288 287 289 288 293 292 292 293 290 289 289 287 296 286 288 286 281 281 283 285 288 290 292 292 290 289 291 292 292 291 294 294 291 286 289 288 286 282 289
303 302 301 300 299 300 300 300 301 301 301 301 296 289 290 289 292 291 295 298 295 287 287 285 283 284 284 284 284 287 289 293 291 291 290 294 292 288 286 287 290 289 290 288 289 290 288 286 290 291 292 292 294 292 292 294 291 292 294 295 296 288 288 286 280 276 274 274 276 279 283 287 290 291 289 290 291 292 291 286 288 284 288 288 286 286 296
303 302 302 300 300 299 300 299 300 301 301 301 297 291 290 287 282 289 291 294 292 291 292 288 286 284 284 282 285 288 285 290 293 294 292 294 293 292 288 291 290 286 286 286 287 289 292 288 288 291 292 294 293 291 293 293 292 295 297 298 295 289 290 289 287 284 282 284 286 289 290 289 286 287 289 289 291 294 295 294 287 285 288 287 291 292 295
303 303 302 300 300 299 299 299 300 300 301 301 296 292 290 290 284 283 282 288 289 288 290 288 288 283 287 281 286 284 286 288 290 294 289 293 292 292 291 291 288 286 288 287 287 289 289 291 291 291 292 295 296 292 292 292 294 298 296 300 296 291 287 289 290 289 289 289 289 290 290 288 289 288 288 289 289 292 294 288 287 295 289 285 295 295 293
303 303 302 301 300 299 299 300 300 300 301 301 297 290 291 284 286 288 289 283 282 283 286 288 286 287 288 285 288 285 285 286 284 290 293 292 293 289 292 292 291 287 287 287 285 287 287 289 286 293 293 292 290 289 292 292 295 298 294 299 293 290 285 290 289 289 290 289 290 291 290 290 289 290 290 289 290 290 292 292 294 294 288 287 296 297 294
303 303 302 301 300 299 298 299 300 300 300 300 296 288 290 289 288 288 291 283 286 285 286 287 287 286 287 288 288 285 285 284 286 286 287 289 290 292 284 288 291 291 291 290 286 286 285 284 291 290 290 292 288 287 289 292 295 294 294 294 298 292 287 291 290 289 288 289 289 291 290 289 289 290 290 291 290 291 292 293 294 295 296 295 294 295 297
303 303 302 302 301 300 299 298 299 300 299 298 293 290 286 284 284 284 289 287 286 286 287 287 286 284 288 284 286 285 285 284 286 288 287 284 287 293 288 289 291 292 291 291 287 283 288 288 286 292 290 291 293 289 292 292 297 296 294 294 296 290 286 291 290 288 288 290 290 291 290 289 288 290 291 291 291 291 292 294 294 293 293 297 297 299 300
303 303 302 302 301 300 299 299 299 299 300 293 291 289 291 290 292 291 284 282 286 288 287 285 285 284 287 284 286 286 286 284 286 285 290 288 287 290 288 291 291 294 291 290 290 292 292 292 292 294 292 288 293 291 292 295 293 295 295 294 294 291 287 292 290 286 286 289 288 290 291 290 290 289 290 289 290 289 291 289 296 292 292 298 300 299 299
303 303 303 302 301 300 299 298 299 299 300 293 291 287 293 292 294 293 289 282 287 285 287 286 286 284 287 286 286 285 285 287 288 284 291 293 294 293 292 291 291 292 290 289 293 296 296 296 297 297 297 296 295 295 296 296 294 294 294 294 290 292 290 287 288 285 284 289 290 290 291 289 285 286 289 291 292 294 294 294 297 297 299 295 290 293 301
303 303 303 302 302 301 299 298 298 299 298 292 290 289 291 289 288 289 289 281 285 286 285 285 284 287 288 288 286 287 287 288 288 283 285 290 292 296 293 292 291 289 290 293 299 300 299 299 300 300 297 297 297 297 297 296 296 295 295 294 291 292 291 289 292 285 284 288 289 292 287 280 282 294 295 294 293 292 291 292 297 298 301 298 300 301 303
303 303 303 302 302 301 300 299 298 299 298 297 296 292 294 294 292 291 285 280 282 286 284 282 285 286 285 287 286 286 286 286 287 290 285 288 291 294 294 295 293 286 297 302 301 299 301 302 300 299 299 298 298 297 296 295 297 298 297 294 293 292 290 289 289 287 284 288 288 284 279 282 293 294 295 293 296 296 296 298 298 300 300 300 302 305 305
302 302 303 303 302 301 300 299 298 298 299 298 297 291 295 296 292 289 286 283 280 283 281 284 286 286 287 287 286 287 288 289 291 292 292 290 288 292 295 294 293 294 300 297 297 298 295 293 293 295 294 297 297 297 296 297 298 299 297 297 294 289 288 288 286 286 287 286 285 278 280 292 294 295 296 296 296 298 301 298 299 300 302 300 302 305 306
302 302 303 302 302 301 300 300 298 298 298 299 296 294 295 296 290 288 287 282 281 285 285 284 287 286 286 286 286 287 289 290 291 292 289 293 292 293 296 297 297 299 298 298 296 295 290 291 288 290 288 291 291 291 294 296 296 294 295 296 296 294 291 291 286 289 283 284 285 284 291 292 294 294 295 296 296 296 297 290 296 300 303 302 302 305 307
302 302 302 303 302 301 301 300 299 298 298 298 297 296 295 296 294 290 290 287 281 284 285 282 285 285 285 286 287 285 287 288 288 288 292 294 293 296 296 298 300 299 299 297 295 293 290 288 286 284 284 284 282 284 292 289 294 297 296 296 295 294 290 293 290 284 288 287 284 285 285 282 288 295 299 300 300 300 298 300 295 302 301 302 302 305 309
302 302 302 302 302 301 301 301 300 299 298 298 297 296 296 297 297 295 291 286 283 279 286 288 288 286 285 286 287 285 285 285 287 288 289 291 292 293 298 299 300 301 300 295 291 290 288 287 282 284 282 284 288 285 285 289 289 293 295 294 293 292 292 293 292 286 287 287 284 282 281 284 293 296 300 301 300 300 298 297 292 301 302 301 303 308 310
303 302 302 302 302 302 301 301 300 299 298 297 295 295 294 297 295 292 289 288 286 282 289 289 289 288 287 286 288 287 288 285 287 284 284 287 290 292 295 297 301 302 298 295 292 291 288 284 284 287 287 287 285 285 288 288 286 289 294 296 294 294 292 291 289 286 284 285 285 283 285 287 295 299 300 301 298 298 297 287 288 302 303 303 304 309 310
303 302 302 302 302 302 302 301 301 300 298 298 296 294 293 298 297 295 291 287 283 283 288 291 288 285 284 286 285 288 290 289 289 289 287 289 290 291 292 294 294 300 302 291 291 289 286 286 285 284 285 288 289 289 282 287 285 286 287 288 287 287 288 289 286 287 286 285 285 287 289 294 299 299 302 302 298 297 289 285 295 304 305 305 307 310 312
304 303 302 302 302 302 302 302 302 301 299 298 297 295 295 297 297 297 291 287 285 281 289 292 290 287 289 291 288 290 290 289 288 285 286 288 291 293 293 294 296 292 298 292 292 287 286 285 288 287 286 287 290 284 289 285 285 290 289 286 287 287 287 286 288 287 286 286 287 286 289 297 297 301 303 301 295 287 288 301 305 305 308 307 306 310 313
304 303 303 303 302 302 302 302 302 301 300 299 297 293 294 297 298 296 291 285 286 283 287 288 289 287 291 289 288 288 289 290 290 287 286 285 293 292 292 290 296 297 294 296 288 290 287 284 286 289 287 288 288 289 286 287 289 289 289 288 286 287 285 284 285 284 285 285 287 285 284 292 302 301 300 301 292 292 304 305 306 305 307 308 307 311 313
304 303 303 303 303 303 302 302 302 302 302 300 298 294 291 297 298 298 298 292 286 281 285 291 291 290 291 290 291 291 289 288 290 288 290 290 292 290 286 285 291 292 289 290 286 287 289 286 288 287 290 289 290 289 285 286 290 293 291 289 290 291 286 285 286 288 285 284 285 287 293 300 303 300 296 301 303 304 303 309 306 307 308 309 310 310 313
304 304 303 303 303 303 302 302 302 302 301 300 298 296 291 294 297 297 298 296 288 284 287 291 292 291 292 293 293 293 292 292 293 294 290 288 292 291 291 292 292 294 296 297 292 290 293 292 291 288 287 289 293 288 287 285 285 290 293 291 288 294 291 289 287 287 289 289 293 300 300 300 302 301 304 306 306 304 305 309 309 309 308 308 311 311 311
304 304 303 303 303 303 302 302 302 302 301 300 298 295 291 293 295 298 296 289 291 291 292 292 292 293 294 294 295 296 295 296 295 295 294 290 288 291 292 294 295 298 299 298 293 292 293 292 288 291 288 289 289 288 288 288 287 290 287 293 292 296 295 294 297 296 296 297 298 300 303 303 304 305 303 305 308 305 305 310 311 310 309 311 312 312 313
304 304 303 303 302 302 302 302 302 302 301 300 298 295 293 295 295 295 293 291 287 283 289 290 287 288 293 294 296 297 296 295 294 295 297 296 289 289 292 294 297 298 298 297 300 295 293 292 292 293 289 293 292 289 287 288 288 292 290 291 295 295 295 294 296 297 294 291 301 300 301 303 304 305 307 307 307 306 307 312 311 311 311 312 312 312 312
304 303 303 302 302 302 302 302 302 302 301 300 298 298 298 295 296 295 290 283 285 283 281 285 288 293 295 297 299 297 297 298 298 296 295 295 294 293 295 299 301 296 295 297 300 298 293 290 293 292 287 294 295 289 292 289 290 293 290 292 293 294 298 295 293 294 294 294 299 300 301 300 300 301 306 308 309 310 309 308 309 309 309 311 310 311 309
302 302 302 302 303 303 302 302 302 302 301 300 299 296 294 293 296 296 293 291 289 286 281 283 290 296 297 297 296 297 300 299 298 296 296 296 296 297 298 298 298 300 298 299 299 295 293 292 290 290 290 290 297 292 292 294 294 295 292 295 296 297 298 292 295 295 297 298 300 302 303 305 305 306 305 306 306 307 310 310 310 310 311 310 310 307 309
301 301 301 302 302 303 303 302 302 302 301 300 299 298 296 296 297 294 291 290 286 284 283 283 289 293 296 293 297 299 299 299 299 297 296 296 296 297 296 295 295 296 296 296 296 291 291 291 290 292 293 292 294 294 295 295 295 292 293 299 298 297 296 296 294 293 292 294 297 299 298 296 304 306 306 307 306 307 309 311 312 311 310 309 310 309 307
301 301 301 302 302 303 303 302 302 302 301 301 299 298 298 295 296 296 296 294 290 286 285 285 286 291 296 293 296 298 299 300 299 298 297 296 296 296 296 295 295 294 294 294 292 293 292 290 292 290 289 294 294 292 295 297 294 293 293 297 298 299 299 298 293 292 293 299 301 301 300 301 303 305 307 308 306 308 309 310 311 311 309 307 311 311 311
302 302 302 302 303 303 302 302 302 302 301 299 298 296 294 296 298 298 297 297 295 290 287 287 291 290 287 294 298 298 300 300 299 298 298 297 296 296 296 296 295 295 295 294 292 291 291 292 290 293 295 298 296 293 295 290 289 289 295 298 299 302 300 301 301 300 301 302 302 302 302 305 306 308 308 307 306 307 309 309 309 309 308 308 309 310 312
302 302 302 303 303 303 302 302 302 302 301 299 296 291 287 293 297 297 298 297 295 293 286 284 283 288 296 295 296 297 297 299 298 298 297 297 296 296 296 296 295 297 297 294 294 292 292 292 291 293 295 297 296 291 291 290 291 295 297 296 298 299 298 300 301 302 302 304 303 303 303 304 306 306 306 306 304 305 308 309 308 309 308 308 310 308 308
300 300 301 302 302 303 303 302 302 302 300 297 293 286 284 284 292 299 298 298 297 293 287 287 284 290 289 296 295 295 296 297 298 297 297 298 298 298 298 298 298 297 292 293 293 293 291 292 291 295 296 296 294 293 293 291 290 294 299 300 300 301 302 303 302 303 304 305 303 302 301 303 305 304 305 306 306 305 306 308 307 305 306 307 306 307 307
300 301 301 302 302 302 302 301 301 301 299 295 290 288 288 293 297 300 299 299 298 292 287 283 285 287 287 291 295 297 296 297 298 298 298 298 297 298 297 298 297 299 295 294 293 292 292 290 290 294 295 298 295 293 292 293 289 293 299 300 302 301 301 302 303 304 302 302 302 304 305 306 305 306 306 304 305 305 308 306 305 307 304 305 305 305 305
300 301 302 302 302 302 301 301 301 299 297 298 300 300 300 300 300 300 300 299 296 291 291 286 283 286 284 290 295 297 296 298 299 298 297 299 297 298 294 297 298 298 301 296 292 293 293 289 290 292 295 297 292 290 293 291 294 298 298 298 300 301 301 302 302 302 302 301 302 305 304 307 306 304 303 303 304 306 307 307 306 307 309 309 308 308 308
301 302 302 302 302 301 301 300 300 299 298 296 293 294 298 300 300 301 300 298 293 292 290 285 284 285 286 295 290 295 297 294 294 296 293 297 299 299 296 297 297 293 297 295 292 292 292 292 292 292 294 292 291 292 289 295 297 297 297 297 298 299 300 301 303 304 302 301 300 301 304 303 303 303 304 305 306 305 305 306 307 309 307 307 306 305 305
301 302 302 302 301 300 299 299 298 296 292 293 293 297 299 300 301 301 300 295 288 286 286 286 286 284 285 286 284 292 296 294 293 295 293 296 299 298 297 295 293 292 292 299 292 291 290 293 296 292 291 294 292 290 290 296 298 298 298 300 301 300 300 301 302 303 301 301 301 302 302 303 304 304 304 304 305 305 307 306 305 310 309 305 305 305 306
302 302 301 301 299 298 297 298 297 294 291 291 294 299 300 301 303 303 301 299 295 289 287 287 287 285 285 282 283 290 296 294 293 294 295 293 298 296 297 296 292 294 296 293 292 292 290 297 293 290 290 289 289 294 298 298 299 299 300 301 301 301 303 303 304 302 300 300 301 302 303 303 304 302 302 303 303 304 305 307 306 307 307 306 304 303 305
301 300 299 296 297 297 293 291 295 295 294 296 298 299 300 301 301 300 298 295 297 297 290 287 285 286 287 287 288 289 293 288 293 291 295 293 293 291 293 293 292 291 291 291 291 290 293 297 293 290 289 289 292 297 299 299 301 301 300 301 301 301 300 300 300 301 301 302 302 302 302 303 302 302 303 303 303 303 306 306 304 307 309 308 304 305 304
299 297 293 291 291 288 288 291 294 296 297 297 298 297 297 297 289 289 289 288 291 294 289 290 286 289 292 289 285 295 293 290 291 289 290 290 292 293 290 292 293 291 288 289 291 298 293 291 291 290 290 295 295 294 296 297 299 301 302 301 301 301 300 299 300 301 302 301 301 302 302 303 303 301 302 302 301 302 301 299 299 300 302 304 304 304 304
293 292 289 287 286 283 287 292 295 296 295 296 297 293 289 291 289 287 287 288 288 286 290 289 287 291 289 287 289 296 292 289 289 288 287 293 290 287 290 288 290 290 287 285 288 296 289 289 287 288 289 294 298 299 297 296 297 298 301 302 301 300 300 299 301 301 301 301 302 301 303 304 304 302 301 301 301 301 301 301 302 301 303 304 304 304 305
291 288 284 284 284 287 292 293 295 293 294 291 287 288 287 289 286 285 287 286 286 288 290 286 291 291 291 289 289 289 296 292 287 287 288 290 294 287 287 289 290 286 283 283 286 293 288 286 285 286 289 293 296 298 299 299 301 301 300 300 301 300 300 300 300 300 300 299 300 301 301 301 302 304 303 302 303 303 303 302 301 300 300 301 300 305 306
290 288 286 284 288 289 291 293 293 291 288 287 288 288 287 285 288 287 287 285 284 286 292 291 292 289 292 292 291 287 296 296 294 291 289 288 294 291 286 283 287 285 282 283 287 289 288 286 285 287 289 295 297 298 299 299 299 298 299 300 302 302 301 300 300 301 302 301 301 301 300 301 301 300 300 301 301 301 299 299 299 299 301 302 303 302 302
293 292 292 292 292 292 291 290 288 287 284 284 284 283 285 286 286 285 286 283 285 284 289 290 288 290 292 292 292 293 293 297 293 288 287 286 289 287 285 284 285 282 281 286 288 287 287 284 284 287 293 294 294 295 298 299 297 298 299 300 301 302 302 301 299 299 301 301 300 300 300 301 301 300 300 301 301 300 300 300 300 299 299 300 301 303 303
296 295 293 288 287 287 286 285 285 285 281 283 280 279 281 281 284 284 284 286 287 287 289 294 295 296 296 296 294 294 293 295 291 288 287 287 288 286 285 282 281 281 284 287 286 284 283 283 283 290 295 294 296 298 298 299 298 299 299 300 301 301 301 301 301 299 299 301 301 301 300 301 301 300 300 301 301 299 298 298 299 301 301 302 302 302 303
293 292 288 284 285 285 284 280 287 285 282 280 279 277 278 279 282 283 283 286 289 289 292 291 292 291 288 294 292 290 290 292 290 287 287 286 284 282 282 281 283 286 286 286 284 282 284 283 288 295 294 294 296 297 297 297 298 299 299 299 299 300 300 300 300 301 300 300 300 300 301 301 301 300 301 301 302 302 301 301 299 299 300 302 303 302 300
286 284 282 282 281 284 283 276 283 281 277 279 281 280 279 279 281 281 285 289 289 289 292 292 292 291 289 294 292 290 288 289 289 287 285 285 283 282 281 283 284 283 283 282 281 283 283 287 294 292 292 295 297 298 297 298 299 301 299 299 299 300 300 301 301 301 301 301 301 301 301 301 302 301 301 301 300 301 302 301 300 299 301 301 302 302 300
283 281 280 277 274 279 280 277 277 279 281 281 283 285 285 285 285 285 289 289 289 291 290 290 291 291 290 293 289 289 287 286 286 285 285 284 282 282 285 285 285 283 279 280 280 281 284 289 293 295 296 297 298 298 297 297 297 299 300 300 299 299 300 301 301 301 301 300 300 301 301 301 301 302 301 301 302 301 301 301 299 300 299 300 301 300 300
283 283 280 279 276 279 281 280 279 282 285 286 287 287 286 287 287 287 288 289 289 291 291 292 291 291 289 290 290 290 286 285 285 286 285 284 282 284 284 283 280 278 278 277 277 280 286 292 293 293 293 296 297 297 298 297 297 298 300 299 298 299 299 299 299 300 300 300 300 300 301 301 300 300 300 301 301 301 300 301 301 300 300 300 298 299 299
281 282 281 277 274 277 279 281 284 284 284 285 286 286 286 287 286 286 289 291 291 290 289 290 290 290 289 291 289 288 287 284 285 287 285 285 284 282 279 278 278 278 279 281 283 287 289 292 292 291 293 295 298 298 298 298 297 298 298 299 299 299 299 299 300 300 300 300 302 301 299 299 300 301 300 300 300 300 301 300 300 300 300 299 299 298 298
283 282 280 278 278 277 279 283 283 283 284 283 283 284 285 285 284 286 288 289 289 288 289 289 288 287 286 287 285 285 285 287 283 285 285 282 281 276 276 276 276 279 283 283 286 288 290 291 291 291 293 295 297 298 299 299 299 298 298 299 299 300 300 301 301 302 301 301 301 301 300 300 301 301 301 300 299 299 300 301 301 300 299 299 299 299 298
281 279 278 278 279 280 282 282 282 281 283 283 284 284 284 284 284 287 291 290 290 288 290 290 287 286 287 285 284 284 284 285 284 284 283 280 278 277 277 276 277 279 283 287 288 291 293 293 291 291 295 295 296 297 298 298 295 297 298 298 299 299 300 301 300 300 301 302 301 301 300 300 300 300 300 300 300 300 300 300 300 300 299 299 298 298 297
281 281 281 284 281 280 282 279 279 279 281 282 283 284 284 284 284 286 292 289 289 288 288 287 287 285 285 284 282 280 284 286 285 283 280 281 280 280 280 278 282 286 288 291 291 292 292 292 291 292 294 296 297 297 298 299 299 299 298 298 298 300 300 300 301 301 301 301 301 296 300 300 301 301 300 300 299 299 299 298 298 298 299 298 297 297 297
278 279 280 281 283 283 284 284 283 282 283 284 284 284 284 284 287 288 290 287 286 285 286 286 286 284 280 281 283 284 286 286 282 282 282 284 282 284 282 285 288 290 290 290 291 293 292 293 292 292 295 296 296 298 298 298 298 298 298 299 300 301 300 300 301 301 301 300 300 302 301 301 300 299 299 300 300 299 299 298 297 298 298 299 298 297 298
Wind_Speed
21 22 24 26 25 25 25 26 27 25 26 14 11 7 4 4 3 4 4 4 3 3 2 2 4 4 5 9 10 10 8 5 7 11 3 1 2 1 2 2 1 1 1 0 2 4 3 7 5 5 6 11 11 10 15 10 9 8 3 1 4 3 1 6 6 7 4 2 5 8 10 9 8 7 6 8 11 10 7 6 2 3 3 2 1 1 1
21 22 23 25 25 25 25 26 27 25 23 12 9 4 3 3 4 4 1 2 1 2 6 6 8 8 9 8 10 7 6 4 11 7 11 7 2 2 1 2 4 3 3 2 2 4 2 3 3 3 3 3 6 9 14 11 8 8 2 4 5 3 2 4 9 8 5 7 8 9 7 10 10 9 7 11 5 4 1 1 4 2 3 1 1 3 1
20 21 23 23 25 24 25 25 25 25 24 18 5 3 3 4 3 3 4 2 1 3 2 3 6 9 11 12 12 11 2 4 7 9 9 7 5 3 1 1 3 3 3 4 5 5 6 2 3 2 2 1 4 9 13 15 3 4 3 6 3 2 1 3 10 10 11 10 12 16 15 18 11 6 9 8 11 9 9 8 4 6 1 3 4 3 2
19 20 22 23 22 24 24 25 24 25 25 22 5 2 2 4 4 4 3 2 3 2 1 2 5 8 10 10 5 6 9 10 10 7 6 5 9 1 2 2 3 2 2 3 2 2 4 5 2 2 1 1 2 6 14 13 6 10 9 6 4 1 0 1 2 10 13 11 5 7 7 8 13 10 13 10 8 8 4 3 2 8 3 3 9 8 5
18 19 21 23 21 24 23 24 22 23 24 23 4 2 2 1 3 4 7 6 2 5 3 4 8 7 9 5 6 7 11 11 7 6 4 6 10 6 2 6 6 7 7 5 3 1 1 3 3 5 2 1 1 6 11 8 12 14 10 7 1 2 4 4 6 8 4 6 7 11 13 12 8 11 11 7 7 4 6 5 6 6 5 5 5 2 3
17 18 20 21 22 23 22 22 24 24 23 25 4 3 4 3 1 2 2 4 6 9 4 10 11 13 9 4 3 8 11 11 10 8 1 8 7 6 3 7 9 3 5 6 4 7 3 6 5 7 5 2 7 8 6 9 7 8 7 2 5 5 5 2 3 6 8 3 9 16 14 13 11 14 10 9 7 7 9 5 2 8 5 8 2 2 6
16 18 19 19 21 22 23 22 22 25 25 18 5 5 4 3 2 2 5 4 5 5 11 15 12 13 9 5 5 11 11 12 6 3 8 8 5 7 4 8 12 10 9 6 1 6 3 2 3 7 7 3 9 7 5 6 3 5 6 5 2 2 6 4 6 3 6 8 8 15 17 13 15 17 16 12 10 10 8 7 3 7 3 3 4 4 10
16 17 17 18 19 20 20 22 22 22 22 12 7 9 5 5 4 4 4 5 8 9 8 9 10 8 8 7 8 8 10 12 13 7 2 5 6 6 6 11 12 10 5 5 4 2 1 5 4 6 10 3 6 5 2 1 3 1 4 5 2 5 1 4 4 5 5 3 8 14 16 15 16 16 16 13 12 11 11 9 4 2 7 4 3 6 6
16 17 17 18 17 20 20 20 21 20 17 6 8 6 6 2 2 4 7 9 6 7 8 8 9 6 7 7 9 10 10 11 11 10 6 6 4 7 10 12 12 6 5 5 4 1 5 7 6 8 5 1 3 2 2 1 2 2 3 3 3 5 3 2 1 3 4 3 10 11 14 13 12 11 10 11 11 10 5 4 5 6 10 2 1 6 4
15 16 17 16 17 18 19 19 20 18 13 5 5 4 5 3 4 5 4 4 5 7 9 8 6 6 7 6 12 7 12 13 11 8 4 6 8 10 10 12 9 7 4 4 8 11 9 9 9 6 5 5 7 5 4 3 2 2 2 2 3 4 3 2 2 3 2 2 5 11 13 10 6 7 12 13 11 6 6 2 2 10 3 3 5 9 3
14 16 16 16 16 16 17 18 18 17 8 8 7 5 6 6 5 3 2 4 4 3 9 6 5 5 10 10 13 12 11 13 11 4 5 5 8 4 8 11 8 5 6 5 7 7 9 9 7 3 4 6 7 5 5 5 7 7 3 2 1 1 2 2 1 2 2 6 9 9 10 8 5 3 1 11 13 11 10 9 9 6 6 3 2 4 4
15 14 16 15 15 15 15 15 15 17 11 5 4 5 6 6 5 2 4 5 6 4 6 6 6 8 12 16 11 13 13 15 14 7 7 6 13 13 10 7 4 5 4 5 9 10 7 2 6 3 2 5 7 7 8 8 9 10 9 6 3 3 2 1 0 2 4 6 8 7 8 2 3 2 1 1 2 5 8 4 3 3 3 3 3 3 4
14 14 15 15 15 15 15 14 16 15 14 6 5 6 6 7 4 3 3 3 5 9 9 8 9 11 10 14 15 12 14 14 11 11 9 9 7 10 4 6 7 8 12 12 10 6 1 6 5 5 5 4 7 6 11 10 10 9 8 10 6 2 2 2 2 2 3 5 6 5 2 2 2 3 4 2 2 3 8 7 3 0 0 2 3 2 3
13 14 15 15 14 14 14 13 15 15 15 10 6 6 6 6 5 3 4 4 7 6 8 13 7 7 12 14 13 16 15 12 10 3 6 5 9 9 8 4 8 11 11 8 3 1 4 1 5 4 3 4 4 4 6 7 2 6 6 9 10 6 1 1 4 3 5 1 2 2 1 2 3 3 4 3 4 7 4 4 3 1 1 2 1 2 2
12 13 14 15 14 14 14 13 12 13 13 12 5 5 7 6 5 3 3 3 6 10 6 3 10 13 13 12 11 12 12 12 15 8 8 6 4 6 10 12 11 10 7 3 1 2 1 1 3 2 1 2 0 1 3 5 6 5 5 6 8 8 6 3 3 1 0 7 6 4 2 3 1 3 2 2 2 2 3 3 3 2 1 1 3 5 5
11 12 13 13 14 13 13 13 11 11 10 12 5 5 5 4 4 4 3 3 5 7 1 2 7 9 9 10 10 7 8 10 10 11 8 3 3 13 12 10 12 8 2 2 1 2 2 2 1 1 0 1 2 3 3 6 7 5 6 2 3 5 3 4 2 3 1 4 5 2 2 1 1 3 3 2 1 3 2 3 4 1 2 4 5 7 7
10 10 11 13 14 14 13 13 12 11 9 11 6 5 4 4 3 4 4 3 2 7 8 10 7 5 8 6 2 3 6 6 9 8 8 11 14 13 14 14 9 6 10 3 4 2 3 4 1 2 0 2 3 2 4 2 5 9 13 5 9 6 3 1 7 3 1 2 3 2 0 2 1 2 2 3 2 3 4 7 3 3 1 3 6 8 10
9 9 10 12 13 13 13 13 12 11 9 8 4 5 5 3 1 4 3 3 4 7 4 1 4 6 4 3 7 5 4 5 5 4 5 9 7 9 13 11 13 8 11 6 6 3 4 4 3 2 2 2 2 2 1 4 5 4 7 6 4 5 3 5 4 2 2 4 2 1 1 2 2 3 4 2 3 1 4 3 2 2 2 3 5 8 9
10 9 9 11 13 13 13 13 13 12 11 8 5 4 2 3 4 2 3 3 3 7 4 2 5 10 10 5 7 5 4 4 6 5 9 6 2 10 13 6 4 8 12 5 6 6 4 3 1 2 1 2 2 2 2 2 3 4 3 5 4 2 1 0 1 3 3 1 3 1 0 1 3 3 5 2 2 3 3 2 1 2 4 4 4 7 8
11 9 8 10 12 13 13 13 13 13 11 10 5 4 5 4 4 1 4 5 3 9 12 11 8 9 4 4 5 6 6 5 4 3 3 4 6 15 6 2 3 6 6 5 6 4 5 5 4 3 1 2 1 2 0 1 2 2 3 1 1 4 2 1 2 1 1 1 4 2 5 0 3 10 1 1 1 2 1 3 1 2 3 2 3 6 9
12 10 10 9 11 12 13 13 14 14 13 11 6 3 6 2 3 2 4 5 6 10 9 0 4 10 8 10 10 11 9 9 4 3 3 6 9 7 5 3 7 6 7 5 5 4 4 4 3 2 2 2 3 2 0 1 1 2 1 3 1 2 0 1 0 2 2 2 2 1 1 5 4 3 3 3 3 2 2 2 3 1 1 1 1 2 4
14 11 9 9 10 12 12 13 14 14 13 11 9 2 6 4 3 3 4 4 7 9 8 7 6 12 14 15 16 14 15 16 15 7 6 7 3 3 2 4 4 3 3 4 3 1 2 3 1 3 3 3 1 1 1 0 1 5 0 1 2 6 3 1 2 2 1 1 2 1 2 4 4 1 3 2 2 1 1 1 3 4 2 2 2 4 4
14 12 9 8 9 10 11 12 14 14 13 12 8 1 7 6 4 3 4 8 8 10 12 14 13 14 13 13 16 16 16 14 12 9 8 5 4 3 4 2 1 1 2 4 4 3 3 4 1 2 2 2 2 2 1 1 1 3 2 3 1 2 1 2 1 3 2 0 1 4 2 3 5 1 1 2 2 1 2 1 5 5 3 1 4 2 3
14 11 9 10 9 10 10 12 14 13 13 11 8 5 7 5 6 4 5 6 4 8 6 3 4 3 0 3 1 6 8 9 13 13 8 8 3 1 2 4 3 2 1 2 0 3 3 2 1 1 2 2 2 1 1 3 2 2 2 1 1 2 2 2 1 1 1 3 4 5 5 5 5 6 3 1 2 4 3 4 4 4 3 4 3 3 3
11 10 11 11 11 11 10 12 13 13 12 11 9 5 4 5 2 3 5 5 4 4 5 7 6 9 6 6 8 5 7 7 6 9 10 12 12 5 2 2 1 2 3 5 1 2 0 1 1 1 2 0 2 1 1 1 2 0 1 1 2 1 1 1 2 0 1 3 1 3 3 3 4 3 5 5 7 7 5 2 2 3 3 4 4 1 4
10 12 13 13 12 12 11 12 13 13 12 11 11 7 7 9 5 5 5 6 5 4 4 6 7 4 4 10 9 6 2 6 8 11 13 15 15 12 4 3 2 2 4 3 3 2 0 0 0 1 1 1 1 2 1 1 3 1 1 2 2 4 5 0 3 1 3 2 3 3 4 5 5 3 1 3 4 5 5 5 4 4 6 6 6 6 4
13 14 14 13 13 12 12 12 12 12 11 10 8 6 7 8 5 6 6 4 3 3 3 6 8 8 6 15 11 6 3 4 6 9 10 12 12 9 7 6 6 5 4 4 1 0 0 0 0 1 2 2 1 2 2 1 2 2 2 2 2 1 3 1 2 3 2 1 1 4 2 3 1 4 6 6 5 4 4 4 5 6 6 4 5 5 5
14 13 14 14 14 13 12 12 12 11 10 13 6 6 7 6 3 5 6 7 5 2 5 9 10 15 15 10 4 4 7 6 6 8 8 10 11 9 8 7 6 6 3 2 1 0 0 1 1 0 1 3 2 0 2 1 1 2 1 2 2 4 1 1 2 1 2 0 2 1 2 2 1 3 5 4 4 3 3 3 4 5 5 3 3 3 4
12 12 14 15 14 13 12 12 12 9 11 8 5 7 4 2 3 2 5 4 2 2 5 8 10 8 2 7 8 6 2 2 4 7 7 7 9 9 8 8 7 5 4 2 0 0 1 2 0 2 2 2 1 2 2 1 2 1 1 0 1 1 1 1 1 1 1 2 1 2 2 1 1 4 4 4 2 1 2 2 2 3 3 3 4 3 4
12 12 14 14 13 12 12 12 11 9 9 3 6 3 2 1 2 2 3 4 4 2 3 6 7 3 5 6 5 4 4 1 0 3 6 6 7 8 8 8 7 6 4 2 0 2 1 1 1 2 2 1 1 0 0 0 1 1 1 2 4 2 2 3 3 1 2 1 1 2 3 5 4 4 4 3 3 2 2 3 4 4 4 3 5 4 2
13 14 15 15 14 13 12 13 11 9 8 1 3 2 1 1 1 1 5 3 4 2 2 2 8 7 7 3 3 6 6 5 0 2 3 4 4 5 4 5 4 5 2 1 1 1 0 1 0 1 1 2 1 0 0 1 2 3 1 0 0 2 1 2 2 4 5 4 2 1 2 4 3 2 1 2 4 2 1 1 3 3 4 6 6 4 3
14 14 14 14 14 13 13 13 12 10 3 3 5 3 1 2 2 2 3 3 2 2 2 5 6 2 4 5 3 3 4 3 2 1 1 2 2 3 4 5 2 5 3 1 0 0 1 0 1 2 2 2 1 1 1 1 1 2 1 1 0 2 2 3 3 2 2 2 2 1 0 0 1 1 1 3 3 2 2 3 3 5 6 7 6 7 6
14 15 15 14 13 14 15 16 14 11 8 7 10 15 16 17 13 8 5 4 3 2 2 2 4 4 4 5 7 3 2 2 1 1 1 2 1 3 1 2 2 2 3 1 1 1 1 1 0 0 1 1 0 1 1 2 4 3 2 3 3 2 3 2 3 3 2 1 3 1 1 1 1 1 1 1 1 1 1 3 2 2 3 6 6 6 6
14 15 14 14 13 15 17 16 13 10 5 4 5 5 4 8 9 11 7 3 3 2 0 1 3 4 7 5 5 1 3 4 3 1 0 2 1 2 1 3 1 1 3 3 0 0 1 0 2 0 0 0 1 1 2 3 4 5 4 4 4 3 2 2 1 2 2 2 1 4 4 2 1 1 2 2 3 2 1 1 1 3 5 5 6 5 2
15 14 14 14 17 17 11 6 0 2 1 2 3 3 2 3 7 7 7 6 3 1 1 2 1 4 6 4 2 3 3 2 2 1 1 1 0 2 1 1 0 1 0 1 0 0 1 1 2 1 0 1 0 2 2 4 3 1 2 2 1 2 0 0 1 2 3 3 2 1 0 2 2 2 1 2 1 1 1 2 2 1 5 4 3 3 2
13 13 14 16 14 4 1 1 2 2 1 2 2 0 6 12 8 4 9 5 2 1 1 1 1 3 1 4 4 3 3 4 0 2 1 0 1 1 0 0 1 1 1 1 1 1 1 1 1 1 1 1 2 3 3 4 2 1 1 2 2 2 2 2 1 2 2 2 2 2 3 3 2 1 1 1 1 2 2 3 4 3 4 4 3 3 2
11 12 12 7 1 1 1 0 1 1 1 2 7 12 13 4 4 4 4 2 3 2 3 2 4 4 4 4 2 3 5 4 3 2 1 1 0 0 0 0 2 0 0 1 1 2 0 1 0 0 2 2 1 3 3 3 3 3 1 1 2 2 3 3 1 1 2 3 3 3 3 3 3 2 1 2 2 1 2 4 2 2 3 3 3 3 2
9 6 2 2 2 1 0 1 2 3 10 11 7 1 1 2 1 0 1 1 2 3 2 3 6 4 2 3 6 2 3 3 2 2 1 0 1 1 0 1 0 0 2 0 1 1 2 0 1 1 3 3 2 3 3 3 3 2 0 1 2 2 3 2 2 3 1 2 3 2 2 3 3 2 2 2 2 3 2 1 1 1 0 1 2 3 3
3 1 3 2 1 1 1 1 3 11 7 3 1 1 1 0 0 1 1 1 0 2 2 4 5 4 5 7 8 2 4 3 3 2 1 1 0 1 0 1 0 0 1 0 0 0 1 0 0 1 3 3 1 2 2 3 1 2 1 1 2 2 1 2 2 2 1 1 2 1 2 3 4 3 1 2 3 3 2 2 3 3 2 2 3 2 3
2 4 1 2 1 1 1 2 7 5 1 1 1 0 1 1 1 2 0 1 2 1 2 4 3 5 8 8 4 5 3 3 1 2 1 4 2 1 0 1 0 0 1 1 0 1 1 1 0 0 1 1 2 0 1 3 3 1 1 1 3 3 3 4 4 3 4 3 3 2 2 3 3 3 3 3 3 4 4 4 4 4 4 3 2 2 2
1 0 0 1 3 1 3 5 3 1 1 1 0 0 1 2 2 1 1 2 3 3 2 3 1 3 4 6 5 7 1 1 2 1 0 2 0 1 0 0 0 1 1 1 0 0 0 0 0 1 0 0 1 2 1 2 2 1 1 2 3 3 4 5 4 3 2 3 4 4 4 4 4 4 3 4 4 4 4 4 4 4 5 5 4 3 2
1 1 2 1 2 4 4 1 1 1 1 1 2 2 2 2 1 1 1 2 2 1 2 4 3 3 3 8 6 4 4 2 0 0 0 2 0 1 0 0 0 0 1 0 1 0 0 1 1 2 1 1 1 1 2 4 2 3 3 3 4 4 4 4 4 4 4 4 4 3 3 4 4 4 3 3 4 5 4 5 5 5 5 4 4 3 3
3 4 3 2 2 1 0 0 1 1 1 1 1 2 0 1 3 2 1 2 1 0 1 3 4 4 2 2 3 6 3 1 2 0 0 2 0 1 0 0 1 1 0 1 0 1 0 1 2 2 0 1 1 3 2 2 3 3 3 2 3 3 3 3 4 4 3 3 4 3 3 4 4 2 1 2 4 5 4 4 4 3 2 3 3 3 3
2 2 1 2 1 1 0 0 0 0 1 1 2 2 1 1 1 0 0 1 0 2 0 4 4 5 3 1 2 1 1 2 1 0 2 0 0 1 0 1 1 0 1 0 0 2 1 2 4 1 1 1 1 2 3 4 4 5 4 3 3 4 4 4 3 4 4 3 3 3 2 3 3 2 2 2 3 4 3 2 2 2 1 2 3 3 2
0 2 1 1 1 1 1 1 1 1 2 2 2 2 2 1 1 1 1 0 1 4 3 1 2 3 7 5 1 2 0 1 0 0 1 0 1 0 0 1 0 1 0 1 1 1 1 1 1 1 2 3 4 4 3 3 3 5 6 4 4 4 4 4 4 3 3 3 3 2 3 2 2 3 3 3 3 2 3 3 1 1 1 2 2 3 3
1 0 1 1 2 1 1 2 1 1 2 2 1 3 1 1 2 3 2 0 3 4 6 7 5 3 6 2 1 1 0 0 1 2 0 0 0 1 1 0 0 0 0 0 0 2 2 2 3 3 1 5 5 4 3 3 2 2 6 6 4 4 3 3 3 3 2 2 2 2 2 1 2 3 3 3 3 3 3 2 1 0 0 1 2 2 2
1 1 2 1 0 3 1 1 3 2 0 1 1 1 2 3 3 5 4 1 4 4 5 4 5 4 3 2 1 1 0 0 1 1 0 1 2 0 1 0 2 0 1 1 2 3 2 4 4 4 4 2 3 2 3 4 2 2 3 4 5 4 3 2 3 2 2 2 2 1 1 2 2 2 2 3 4 3 3 3 3 2 2 3 2 2 2
0 1 1 1 3 2 2 2 1 2 2 2 1 2 3 2 2 3 1 2 3 3 5 6 4 0 2 2 1 2 1 0 1 2 0 1 0 1 1 1 0 1 1 0 0 1 2 3 4 6 4 3 2 4 4 4 3 4 3 3 4 4 3 4 3 3 3 3 3 3 1 1 2 2 2 3 2 2 3 3 3 2 2 2 2 2 2
1 1 1 2 1 2 2 1 2 3 2 1 2 2 2 3 4 5 3 1 2 4 4 3 1 0 2 0 0 1 1 0 0 1 1 0 0 1 0 1 0 1 1 2 3 3 4 8 7 5 4 2 3 3 3 3 3 4 5 5 5 4 4 3 3 4 4 3 2 3 2 2 2 2 3 3 3 2 2 2 2 2 2 1 1 1 2
1 2 2 1 2 2 2 0 1 3 2 2 2 2 2 2 4 4 1 3 3 5 1 2 0 1 1 0 1 0 1 0 1 1 0 1 0 0 0 1 2 1 2 2 4 7 7 6 5 5 2 2 3 3 3 2 2 4 3 2 3 3 3 2 3 3 3 4 4 3 4 4 3 3 3 4 3 2 1 2 2 2 2 2 1 1 2
0 1 2 2 3 1 1 1 0 2 4 4 3 4 2 4 3 3 1 3 5 4 1 1 0 0 1 1 1 0 0 0 1 0 1 1 0 0 0 2 2 3 7 7 7 7 8 6 4 5 3 3 3 3 3 3 3 2 2 3 3 2 2 1 2 4 2 1 3 3 3 3 3 3 3 4 4 3 2 2 3 3 2 2 2 2 2
1 1 2 1 2 3 3 2 2 5 6 6 4 3 1 4 3 3 1 4 3 1 1 0 0 0 1 1 1 1 2 0 1 0 1 1 1 1 1 3 8 8 9 10 10 7 5 4 4 5 4 2 3 3 3 3 2 3 3 3 3 3 3 2 3 2 3 2 1 2 2 3 4 3 3 3 3 2 2 2 1 1 2 2 3 2 2
Wind_Direction
351 354 357 356 353 351 350 351 352 352 349 355 352 329 356 15 289 292 344 340 207 246 245 235 331 303 272 298 279 251 267 263 295 316 327 331 349 281 258 271 310 159 216 139 200 198 209 196 222 197 191 182 201 184 191 182 170 185 194 245 193 174 233 140 96 96 91 31 134 158 168 150 165 207 177 173 195 199 199 213 106 199 127 188 157 222 250
350 353 357 357 355 353 351 351 353 351 352 348 336 349 352 313 299 308 328 347 157 315 12 337 337 327 312 315 276 237 248 303 318 332 323 342 330 337 292 299 212 315 213 239 254 195 226 177 237 176 176 212 177 187 181 177 194 174 185 196 164 186 263 158 134 155 150 126 145 172 186 197 204 190 180 192 150 126 137 133 81 250 187 281 251 209 212
350 353 358 358 355 354 353 353 353 350 346 352 339 343 311 282 233 244 295 359 346 358 349 320 320 329 327 331 326 339 291 213 302 315 320 324 339 314 318 295 326 274 324 276 259 266 249 359 269 258 172 281 164 165 172 188 174 206 186 232 117 284 136 178 159 167 171 165 174 182 183 196 186 169 155 192 170 152 153 208 164 230 96 199 232 259 258
349 353 357 360 358 355 356 355 353 349 342 347 5 345 315 19 359 321 309 357 352 176 158 238 330 317 335 330 327 323 328 332 338 338 319 329 337 283 280 210 151 276 253 247 222 244 189 209 238 182 70 206 126 153 173 182 193 205 230 225 160 165 196 275 247 187 185 189 141 55 100 141 187 172 172 178 196 168 146 76 154 213 148 208 230 255 317
350 352 357 0 360 356 356 356 353 350 341 344 360 348 119 285 48 331 339 320 176 347 302 333 346 319 322 310 323 327 340 321 328 30 302 353 334 319 218 349 19 350 8 7 313 355 169 228 274 8 327 38 257 165 159 164 204 227 223 227 89 265 271 237 217 243 254 93 132 138 171 173 165 160 177 160 173 191 167 190 199 106 143 248 244 149 221
351 352 354 0 2 359 355 356 357 353 345 340 339 50 1 32 13 332 44 306 313 340 334 344 321 312 319 281 283 319 335 346 347 327 292 320 313 343 303 346 21 3 342 318 312 340 51 50 360 353 3 154 117 129 145 178 209 230 243 257 256 259 264 238 183 237 207 223 147 152 161 167 162 181 181 180 170 175 195 214 121 160 202 234 336 144 207
350 350 353 358 2 1 357 356 0 356 346 342 353 53 24 64 330 275 353 320 299 284 287 305 314 312 317 315 323 335 340 336 340 295 311 329 323 3 318 331 338 344 1 339 292 8 53 7 9 31 348 355 119 114 141 248 251 273 272 271 164 254 257 214 196 187 178 187 195 158 161 157 165 183 189 187 163 186 193 211 174 209 233 3 309 280 256
351 349 351 356 3 6 5 357 360 0 347 340 37 47 27 25 344 331 326 271 288 289 305 316 320 319 330 341 346 338 330 333 335 337 314 313 309 320 334 326 328 335 17 349 45 349 34 9 348 4 347 23 20 101 60 201 134 143 257 257 187 203 240 127 170 168 147 166 189 175 158 158 174 175 192 180 178 183 191 206 189 346 299 261 331 296 295
351 349 350 357 2 5 8 360 358 5 351 17 23 37 28 322 298 295 309 314 306 314 329 332 325 317 350 358 340 335 331 329 329 297 234 233 280 319 319 318 319 336 7 344 4 323 318 309 304 308 323 339 351 31 166 22 322 348 276 239 169 188 256 114 161 171 125 118 172 181 151 160 162 173 183 170 174 184 178 202 200 181 226 174 334 296 278
351 350 350 354 0 4 8 3 358 6 3 19 357 24 345 316 272 290 290 295 304 324 331 326 334 359 353 345 324 331 312 321 328 321 234 238 256 282 312 315 310 319 317 321 348 339 317 298 300 302 265 251 270 250 256 282 288 307 259 334 237 209 194 198 189 164 99 77 155 146 129 117 139 201 192 173 176 178 155 264 201 219 175 152 218 243 31
352 351 350 352 356 6 7 10 360 6 14 18 4 3 348 352 341 320 295 298 288 335 334 322 353 321 320 330 324 321 308 320 332 350 316 315 293 291 311 307 331 316 311 320 322 304 294 290 291 249 245 255 261 257 255 250 245 232 241 289 273 269 224 252 202 164 94 106 146 152 145 170 177 83 313 169 174 161 167 197 203 194 192 240 330 301 317
352 352 349 352 353 2 7 8 5 1 11 16 343 344 350 332 314 314 340 331 299 330 335 297 321 314 319 320 325 313 317 323 316 293 261 276 285 304 315 329 338 315 296 313 314 312 288 164 114 103 275 269 258 260 252 245 237 219 215 224 266 266 224 214 94 122 122 120 144 153 163 151 26 341 234 358 12 203 166 89 75 126 236 272 268 267 280
349 350 351 350 351 355 5 8 8 0 1 4 359 356 340 331 326 343 316 313 291 328 334 311 301 290 300 318 323 319 318 298 294 296 260 251 277 301 306 327 319 294 316 312 318 306 116 92 79 108 66 338 302 292 271 255 251 226 205 208 207 229 179 154 70 56 87 135 165 165 144 21 354 54 67 106 95 119 124 85 93 40 266 256 253 239 255
346 346 349 348 349 353 3 6 3 5 353 5 356 343 329 342 353 340 350 335 301 295 302 295 283 317 333 329 324 314 325 330 337 228 326 301 303 299 312 305 298 299 299 314 328 340 101 290 98 76 24 319 290 269 247 273 236 176 185 194 206 227 298 208 90 316 134 140 114 84 2 112 96 119 139 189 157 174 185 161 152 161 187 230 249 206 216
344 346 347 346 346 348 0 2 359 4 358 356 359 340 341 348 345 335 320 295 301 297 285 283 332 323 321 318 333 329 345 344 349 340 308 272 280 302 296 299 309 302 297 254 39 31 58 126 93 100 360 321 304 280 321 350 288 231 199 188 189 185 210 221 121 23 198 124 113 123 132 141 150 122 311 241 251 305 266 117 112 217 209 215 195 191 168
344 345 344 344 342 343 353 354 359 1 360 352 348 342 319 331 322 321 325 300 313 313 209 225 325 309 314 312 319 330 335 331 339 314 315 312 288 325 323 333 321 308 249 102 53 71 44 85 119 79 81 277 275 279 3 329 322 296 132 120 171 179 232 277 113 123 134 115 123 124 121 72 25 317 318 331 296 219 175 202 121 83 136 171 192 176 167
335 340 340 338 338 339 344 349 352 354 359 357 347 332 318 335 353 333 320 292 243 243 300 313 301 292 303 303 339 349 352 340 342 353 335 333 329 328 316 330 312 350 10 128 16 65 55 64 84 87 154 283 336 9 290 344 330 326 333 8 18 59 13 95 81 68 51 124 100 101 235 87 37 288 307 360 70 159 172 179 151 42 106 157 185 183 171
329 330 335 333 332 335 340 345 345 347 350 359 350 337 305 305 233 317 313 316 311 283 264 276 20 322 313 342 308 306 306 315 327 302 266 291 302 342 336 333 345 358 10 54 355 58 52 39 49 34 58 328 294 284 17 328 344 356 321 321 347 355 12 13 92 94 105 92 76 94 81 286 267 273 323 29 171 221 178 156 86 316 5 160 190 183 176
322 320 325 329 328 329 336 339 341 339 347 353 348 290 254 269 295 281 313 265 281 277 219 290 331 272 271 279 252 281 275 292 305 306 317 328 34 329 307 278 299 354 1 16 28 48 42 48 4 354 359 353 350 25 346 331 328 301 301 3 8 36 41 96 32 44 63 27 78 75 237 273 295 291 302 277 189 137 110 93 323 317 344 100 169 172 179
315 315 317 326 325 325 332 335 337 336 335 345 353 318 298 284 278 255 321 314 254 271 279 267 245 254 228 222 285 285 297 277 230 255 320 310 334 341 314 50 32 358 358 8 49 29 37 23 346 293 350 3 24 305 7 21 182 330 357 287 9 339 360 32 39 173 156 9 93 105 110 95 74 315 336 121 72 104 68 151 250 257 329 355 139 169 170
312 308 316 321 324 326 331 332 335 337 330 338 351 317 318 210 259 230 203 272 300 299 296 239 203 231 245 255 249 258 263 258 246 275 278 277 311 326 34 355 328 347 9 351 19 18 15 12 358 338 301 282 351 273 329 309 338 168 270 352 355 297 4 57 156 261 79 59 69 59 337 315 11 346 82 341 42 63 118 141 95 322 313 18 98 164 175
313 307 306 314 324 324 332 332 332 335 332 331 335 321 305 306 242 248 253 238 264 243 259 286 290 280 263 253 255 247 242 245 250 249 276 296 305 312 282 299 294 338 16 343 4 324 36 346 271 1 343 334 293 9 350 312 72 323 319 262 33 2 5 316 34 292 38 71 91 338 319 282 319 310 9 358 348 312 139 102 105 112 98 279 53 85 162
310 309 303 304 316 323 327 327 326 331 331 331 331 218 303 304 290 258 281 285 264 265 269 270 281 272 266 256 243 237 234 237 250 248 228 233 289 232 238 238 309 319 333 24 27 335 339 332 329 315 290 220 321 323 157 291 83 338 347 352 123 337 331 337 321 59 232 122 321 280 310 341 352 37 283 316 16 141 203 8 73 64 98 88 63 47 102
313 309 304 304 313 317 318 316 324 328 327 329 327 311 308 299 296 303 296 283 285 303 283 204 329 311 205 327 241 203 216 231 224 228 208 202 230 275 224 247 268 309 51 20 258 318 316 298 331 338 327 5 242 343 25 59 45 317 274 24 11 306 319 331 65 344 17 66 339 20 357 332 3 348 5 128 40 12 339 9 33 40 75 84 60 48 50
323 318 311 308 309 308 307 313 320 327 325 326 321 294 274 282 216 237 303 317 324 9 309 303 262 247 276 274 279 254 204 210 187 198 195 205 221 241 52 85 298 6 355 329 312 268 173 315 280 47 343 298 281 28 249 313 96 4 344 41 326 86 236 332 30 85 57 108 59 328 314 291 309 324 356 15 359 5 18 6 352 356 25 40 39 49 66
321 320 312 308 306 303 305 311 317 325 327 327 323 310 306 294 275 232 256 259 253 275 300 311 286 307 300 319 314 296 256 176 190 188 197 203 211 226 262 354 311 17 340 307 308 291 276 241 224 241 310 60 330 335 332 359 317 317 287 334 356 297 308 60 321 61 82 91 51 24 108 51 31 5 317 328 332 325 353 4 2 35 46 29 30 34 31
315 311 305 302 303 302 304 305 314 321 324 319 318 309 293 285 246 223 218 211 265 264 208 261 289 290 344 312 299 298 244 192 185 194 202 210 217 227 245 264 285 310 328 307 349 47 91 40 190 261 216 296 359 309 287 277 298 319 311 320 308 259 50 306 228 110 100 85 40 330 161 139 101 10 6 350 355 331 329 349 14 27 46 43 47 20 15
307 304 301 300 301 303 301 304 311 322 322 326 322 293 284 268 253 207 213 211 217 300 303 295 300 299 307 270 255 260 277 248 208 198 199 203 206 212 219 237 254 270 277 286 266 246 30 318 271 329 274 278 288 180 166 203 212 223 233 328 1 41 332 333 41 70 87 163 328 214 297 333 317 309 335 343 347 350 351 3 359 18 49 46 68 73 22
301 300 298 299 303 304 300 301 313 317 324 344 326 313 305 224 309 203 201 191 252 294 273 267 273 285 311 324 319 303 281 246 226 206 197 194 194 201 211 215 224 226 246 260 268 108 206 246 252 256 289 48 280 314 317 10 7 15 16 147 217 343 228 323 33 186 252 269 274 182 227 67 24 332 330 343 349 315 318 338 358 8 33 66 76 66 91
301 302 303 307 308 303 302 306 312 316 329 8 347 350 334 133 76 83 165 167 178 273 302 331 325 280 318 305 291 295 295 316 163 186 183 182 191 205 208 202 212 219 233 260 245 272 231 261 249 249 269 254 286 336 360 206 293 352 345 248 256 278 267 248 234 244 2 72 322 278 244 268 282 297 308 325 340 311 331 9 360 20 54 64 96 85 29
309 307 302 302 306 306 304 305 309 311 321 26 350 310 23 333 35 54 157 164 175 229 263 225 261 298 302 228 286 294 307 316 92 134 188 187 190 187 189 185 212 187 203 211 225 235 108 238 230 244 217 204 184 323 342 229 321 297 70 257 329 288 296 295 227 242 268 290 328 281 264 269 295 298 253 359 346 331 248 48 36 47 74 81 72 75 65
305 304 302 301 300 301 300 302 304 309 293 263 253 222 163 98 89 135 181 182 186 250 304 311 307 312 310 299 273 274 297 313 136 147 144 174 163 169 169 201 206 197 218 197 246 138 235 196 241 284 287 113 187 165 173 178 244 257 258 17 171 272 276 286 296 280 238 258 273 225 289 200 232 247 108 7 343 358 73 92 80 88 82 87 87 77 72
302 302 305 304 301 301 303 302 303 298 279 258 240 249 264 267 256 243 207 209 279 271 268 280 281 304 289 296 317 297 224 249 190 238 210 180 173 155 168 193 237 250 192 206 235 259 112 160 196 238 141 330 219 155 202 214 226 242 256 291 304 297 287 285 280 275 286 245 225 249 177 222 57 25 330 339 340 28 90 98 87 110 97 87 78 77 74
299 301 307 305 299 305 307 307 305 295 275 242 241 239 241 248 256 247 215 174 269 294 281 252 290 301 288 322 309 43 28 349 302 334 309 137 173 186 142 166 153 244 175 202 293 277 146 180 229 242 140 125 32 225 250 241 239 269 291 284 284 285 267 282 279 335 346 332 264 254 283 330 2 130 126 110 85 60 62 60 203 92 65 66 63 60 64
298 304 305 302 306 310 315 313 180 125 170 203 247 273 272 277 260 251 193 163 177 225 227 242 219 302 321 324 316 285 15 312 330 48 322 75 188 231 147 191 101 248 99 38 231 281 244 246 121 203 204 41 221 237 242 258 271 258 265 281 267 288 295 192 254 333 343 347 318 326 292 164 160 129 73 52 64 15 88 42 12 139 91 62 64 36 31
305 307 303 308 315 330 131 147 128 141 129 208 217 40 306 317 311 224 179 199 295 276 228 273 192 250 238 301 318 303 330 304 40 287 200 332 191 74 180 152 250 170 28 187 248 156 233 111 165 250 88 225 225 206 228 197 201 217 235 246 250 243 263 254 309 3 4 356 21 42 76 80 91 60 24 39 46 42 74 83 50 52 92 106 89 79 65
308 308 314 323 341 144 48 125 287 229 10 311 296 294 295 286 82 93 138 220 231 238 270 304 281 238 207 283 293 272 348 313 347 322 174 225 273 13 237 211 265 61 213 223 237 240 236 62 278 238 196 214 232 212 209 174 170 153 157 235 285 267 278 286 272 200 97 63 54 52 56 86 75 41 77 58 35 19 77 68 18 30 70 106 131 108 85
312 338 32 19 40 36 321 201 161 341 323 304 311 234 159 232 222 141 110 188 237 189 222 222 251 267 217 236 256 288 325 270 56 327 308 108 198 195 14 251 289 220 266 261 317 111 112 180 231 267 267 248 280 266 220 200 229 276 338 341 321 298 277 282 179 177 138 126 110 90 98 92 82 39 80 64 28 52 50 2 335 311 360 99 110 122 131
20 11 49 42 89 223 214 155 346 322 305 252 230 210 263 140 285 221 217 213 246 225 202 216 253 232 226 239 261 254 239 297 320 20 319 127 281 307 175 270 113 240 296 302 154 162 242 209 164 292 263 296 330 146 161 152 245 228 257 306 298 302 257 158 197 275 278 65 71 36 7 70 99 101 112 110 94 80 76 70 72 67 71 93 109 117 112
11 24 13 341 238 252 308 314 337 325 236 140 349 99 256 156 208 251 73 207 234 206 189 241 232 240 223 236 286 312 145 193 228 307 299 297 150 290 36 250 182 282 275 294 289 350 255 277 138 293 281 216 217 95 125 144 144 169 265 36 48 53 100 103 82 45 74 69 56 58 37 26 33 87 109 104 109 97 76 63 59 60 66 70 29 70 77
37 79 46 261 285 315 314 326 322 99 60 76 9 224 289 260 213 197 162 256 262 240 217 247 257 263 233 233 226 253 276 258 287 45 227 266 278 82 194 264 79 275 282 260 102 143 92 181 245 245 305 95 187 116 121 127 122 117 91 113 100 88 75 75 68 44 71 89 65 57 41 45 59 65 65 71 75 78 75 66 59 56 64 74 66 60 51
214 274 262 265 299 303 314 329 87 77 29 107 124 249 220 270 20 300 206 237 250 213 213 175 232 231 247 187 209 225 263 212 152 175 232 284 106 232 258 342 360 358 262 65 55 95 60 260 280 274 239 259 260 255 172 146 146 148 130 116 101 87 77 73 74 50 40 79 83 70 55 60 65 59 60 68 73 76 77 75 73 67 69 72 76 73 68
34 57 76 17 341 297 291 262 262 127 152 191 57 296 54 214 223 212 235 230 279 258 7 188 263 263 251 140 246 199 241 139 233 202 213 256 344 55 158 24 51 219 229 53 47 64 336 235 238 264 249 235 192 173 168 119 128 126 113 104 96 78 77 76 76 76 46 62 74 75 73 68 61 50 45 74 96 83 69 70 73 86 89 88 77 70 69
98 75 50 9 337 279 181 173 159 102 329 121 142 217 253 281 285 65 245 273 56 262 27 346 348 6 324 200 284 314 247 237 178 261 245 298 256 257 79 237 228 360 30 104 56 233 258 256 235 145 77 338 189 192 156 153 150 122 104 87 73 80 86 103 117 106 91 80 74 73 76 72 76 69 59 48 49 86 88 75 45 55 90 121 97 87 73
58 345 37 15 350 265 98 287 325 123 220 228 189 212 164 187 272 202 279 354 205 303 347 296 301 314 286 303 254 234 194 295 52 224 259 180 253 126 180 274 267 27 20 245 305 289 291 272 279 230 231 185 183 178 164 165 177 141 135 116 102 113 141 144 127 116 121 106 113 113 85 70 75 67 57 57 47 29 59 60 34 32 26 43 62 63 52
74 185 61 68 311 293 153 229 28 256 264 160 208 199 208 267 285 272 278 359 293 306 320 320 313 276 274 259 250 309 4 348 292 227 217 80 312 261 227 123 85 314 329 80 312 268 286 330 324 326 198 177 168 169 156 142 143 138 133 142 152 160 197 164 126 122 122 130 133 119 113 70 72 70 60 43 43 49 50 63 67 46 70 70 54 46 31
80 52 88 94 148 271 76 201 225 203 305 248 248 210 272 301 282 277 288 305 279 293 298 275 263 256 274 311 293 242 137 34 270 285 71 239 226 265 43 261 276 194 164 276 267 268 328 352 341 333 324 256 159 155 152 146 143 170 129 105 136 175 185 136 119 135 136 149 127 138 158 129 107 95 92 66 44 25 23 30 43 33 38 49 46 50 46
161 244 111 212 238 206 194 245 357 285 208 233 295 316 294 286 295 288 248 209 270 303 311 329 327 326 237 163 172 279 321 6 285 280 181 290 360 19 6 33 281 250 214 220 261 242 302 302 336 333 326 296 247 163 159 162 165 178 170 158 163 176 166 155 149 158 157 178 173 155 133 78 112 112 100 98 88 40 23 27 32 34 49 63 55 38 53
114 157 201 223 200 171 238 299 5 299 288 299 286 284 306 322 294 283 299 246 295 311 306 263 240 304 283 122 180 283 261 69 250 264 335 345 224 242 145 243 291 332 260 216 332 339 315 315 318 310 293 242 232 216 183 153 161 170 184 181 185 182 182 165 160 165 170 169 157 154 179 156 134 121 119 121 102 64 25 26 33 44 38 38 62 61 75
87 327 27 91 315 260 210 260 284 275 312 331 340 325 304 281 290 300 20 317 323 312 317 160 152 257 293 332 267 256 251 266 272 316 313 265 285 220 86 277 227 186 354 341 306 301 304 305 318 303 287 220 213 212 187 173 184 190 183 181 172 179 193 156 158 168 213 155 169 189 153 146 149 151 145 126 114 102 65 41 27 44 52 39 41 67 73
21 160 249 185 219 261 78 286 4 309 308 310 315 307 317 298 283 292 87 343 338 341 332 297 336 333 308 360 19 304 47 108 271 279 282 309 108 111 285 272 305 314 298 296 284 280 292 301 299 295 277 230 211 202 186 189 187 176 159 157 156 152 127 148 181 172 167 43 121 135 166 149 156 142 111 114 127 122 95 46 15 8 28 45 40 42 68
89 228 249 269 233 240 239 279 256 245 257 272 279 255 193 265 247 264 49 337 328 317 298 356 297 347 55 298 284 284 303 300 269 327 246 233 175 352 319 293 312 315 313 309 305 306 299 287 269 254 253 220 200 206 191 170 160 144 157 140 134 134 158 169 165 155 132 131 146 156 137 132 118 109 112 125 135 149 132 109 56 28 28 40 56 55 70